Location: Ojai
(34.4480°N, 119.2420°W)
Time: 16:59:05
(UTC-07:00)

Tiangong 2 - Visible Passes

Search period start: 18 August 2018 00:00
Search period end: 28 August 2018 00:00
Orbit: 384 x 395 km, 42.8° (Epoch: 18 August)

Date Brightness Start Highest point End Pass type
(mag) Time Alt. Az. Time Alt. Az. Time Alt. Az.
18 Aug 2.1 05:06:46 25° WNW 05:08:07 38° NNW 05:11:09 10° NE visible
19 Aug 3.1 04:11:34 30° NE 04:11:34 30° NE 04:13:23 10° ENE visible
19 Aug 3.2 05:44:57 10° WNW 05:47:26 20° N 05:49:57 10° NE visible
20 Aug 2.8 04:48:39 23° NW 04:49:23 25° NNW 04:52:07 10° NE visible
21 Aug 4.1 03:53:24 17° NE 03:53:24 17° NE 03:54:21 10° NE visible
21 Aug 3.5 05:26:29 10° NW 05:28:47 18° N 05:31:06 10° NE visible
22 Aug 3.3 04:30:29 20° NNW 04:30:40 20° N 04:33:07 10° NE visible
23 Aug 3.6 05:07:48 10° NW 05:10:07 18° N 05:12:25 10° NE visible
24 Aug 3.7 04:12:26 17° N 04:12:26 17° N 04:14:15 10° NE visible
24 Aug 3.1 05:46:43 10° NW 05:49:29 26° NNE 05:52:15 10° ENE visible
25 Aug 3.4 04:49:40 14° NNW 04:51:24 21° N 04:53:54 10° ENE visible
26 Aug 4.3 03:54:41 14° NE 03:54:41 14° NE 03:55:34 10° NE visible
26 Aug 2.4 05:27:37 10° NW 05:30:39 40° NNE 05:33:41 10° E visible
27 Aug 2.9 04:32:12 26° N 04:32:36 27° NNE 04:35:24 10° ENE visible
